(304) Olga
ephemeris date magn radius delta ra dec elong phase
Today2 Jul 202515.92.901 AU3.417 AU10h18m+12°48'51.9°16.0°
Opposition15 May 202613.32.337 AU1.389 AU15h56m+06°43'153.4°11.2°
(304) Olga - 2025-07-02
astro.vanbuitenen.nl


 
-1 year
-1 month
-1 day
Now
+1 day
+1 month
+1 year

The interactive orbit chart above shows the body's path through the solar system and its position at the given date. Green and blue lines are shown perpendicular to the ecliptic plane: Green if the path is above the ecliptic plane, blue if it is below. (Left-click and drag to rotate the view; Right-click and drag to move the view; Use scroll wheel to zoom in our out.)

The orbital elements of Olga are:

            e (Eccentricity)                : 0.2224887
            a (Semimajor axis)              : 2.4022129
            i (Inclination)                 : 15.84924
            Ω (Longitude of ascending node) : 158.95878
            ω (Argument of perihelion)      : 172.41286
            M (Mean anomaly)                : 190.25067
            Epoch                           : 2025 May 05

            L (Longitude of perihelion)     : 151.65690
            B (Latitude of perihelion)      : 2.06650
            P (Orbital period in years)     : 3.72            
        

The light curve chart below shows the estimated development of the minor planet's magnitude.


The all-sky chart below shows the path of the minor planet over the same period as the light curve. The current position is marked yellow.





The following chart shows the path of the minor planet in the next few days. The field of view is optimized for (~10x50) binoculars and finderscopes. A more printer-friendly version of the same chart can be found below.




Ephemerides:
Date       Time       RA (2000)    DEC (2000)    delta   radius  elong  phase   PA    magn
2025-07-02 00:00 UT   10 18 33.8   +12 48 27     3.417    2.901   51.9   16.0   109   15.9 
2025-07-02 04:29 UT   10 18 47.6   +12 47 32     3.419    2.901   51.7   16.0   109   15.9 
2025-07-03 00:00 UT   10 19 48.2   +12 43 36     3.427    2.900   51.2   15.9   109   15.9 
2025-07-04 00:00 UT   10 21 03.0   +12 38 41     3.437    2.900   50.6   15.7   109   15.9 
2025-07-05 00:00 UT   10 22 18.1   +12 33 42     3.447    2.899   49.9   15.6   109   15.9 
2025-07-06 00:00 UT   10 23 33.5   +12 28 40     3.457    2.898   49.3   15.4   109   15.9 
2025-07-07 00:00 UT   10 24 49.3   +12 23 34     3.466    2.897   48.7   15.3   109   15.9 
2025-07-08 00:00 UT   10 26 05.3   +12 18 24     3.476    2.897   48.0   15.1   109   15.9 
2025-07-09 00:00 UT   10 27 21.7   +12 13 11     3.485    2.896   47.4   15.0   109   15.9 
2025-07-10 00:00 UT   10 28 38.4   +12 07 54     3.495    2.895   46.8   14.8   109   15.9 
2025-07-11 00:00 UT   10 29 55.3   +12 02 34     3.504    2.894   46.2   14.7   109   15.9 
2025-07-12 00:00 UT   10 31 12.6   +11 57 10     3.513    2.893   45.5   14.5   109   15.9 
2025-07-13 00:00 UT   10 32 30.1   +11 51 43     3.522    2.893   44.9   14.4   109   15.9 
2025-07-14 00:00 UT   10 33 47.9   +11 46 13     3.531    2.892   44.3   14.2   109   15.9 
2025-07-15 00:00 UT   10 35 06.0   +11 40 39     3.540    2.891   43.7   14.0   109   15.9 
2025-07-16 00:00 UT   10 36 24.4   +11 35 02     3.548    2.890   43.0   13.9   109   15.9 
2025-07-17 00:00 UT   10 37 43.0   +11 29 21     3.557    2.889   42.4   13.7   109   15.9 
2025-07-18 00:00 UT   10 39 01.9   +11 23 38     3.565    2.888   41.8   13.6   109   15.9 
2025-07-19 00:00 UT   10 40 21.1   +11 17 51     3.574    2.888   41.2   13.4   109   15.9 
2025-07-20 00:00 UT   10 41 40.5   +11 12 01     3.582    2.887   40.6   13.2   109   15.9 
2025-07-21 00:00 UT   10 43 00.2   +11 06 08     3.590    2.886   40.0   13.1   109   15.9 
2025-07-22 00:00 UT   10 44 20.1   +11 00 12     3.598    2.885   39.4   12.9   109   15.9 
2025-07-23 00:00 UT   10 45 40.3   +10 54 13     3.605    2.884   38.8   12.7   109   15.9 
2025-07-24 00:00 UT   10 47 00.7   +10 48 12     3.613    2.883   38.1   12.6   109   15.9 
2025-07-25 00:00 UT   10 48 21.3   +10 42 07     3.620    2.882   37.5   12.4   109   15.9 
2025-07-26 00:00 UT   10 49 42.2   +10 35 59     3.628    2.881   36.9   12.2   108   15.9 
2025-07-27 00:00 UT   10 51 03.3   +10 29 49     3.635    2.880   36.3   12.1   108   15.9 


    Terminology:
            
    delta:  distance between minor planet and earth in AU
    radius: distance between minor planet and sun in AU
    magn:   magnitude (brightness) estimate    
    ra:     right ascension in hours (24h = 360deg)
    dec:    declination in degrees
    elong:  elongation in degrees (angle sun-earth-minor planet)    
    phase:  phase angle in degrees (angle sun-minor planet-earth)        
    AU:     Astronomical Unit (mean distance between earth and sun: 149597870.7 km
    

Orbital elements provided by the MPC (Minor Planet Center).
Calculations by a modified version of AAPlus, a C# implementation of the AA+ project by PJ Naughter from the algorithms presented in the book "Astronomical Algorithms" by Jean Meeus.
NGC2000 dso catalog and star labels from VizieR as provided by the Strasbourg astronomical Data Center.
Tycho2 catalog from the ESO archive.